Theta_e
313 314 315 314 314 314 315 316 316 316 316 316 317 317 316 316 316 316 317 317 317 318 318 317 317 316 315 321 340 343 347 350 350 349 348 346 344 343 341 340 336 331 336 339
312 312 312 313 313 314 315 317 317 315 315 316 316 317 317 317 317 317 317 317 317 317 318 319 318 318 316 324 336 342 345 348 348 346 346 345 343 342 341 339 337 336 336 338
314 313 313 313 314 315 315 318 319 317 317 317 318 320 318 318 318 318 318 318 317 317 318 319 320 318 318 325 336 343 344 348 342 340 345 344 342 341 341 340 341 339 335 337
316 314 314 313 315 315 318 317 319 319 319 320 319 325 319 318 318 317 318 318 317 317 318 319 320 319 318 321 331 340 344 346 347 344 344 343 344 342 341 340 340 339 333 334
312 313 313 315 314 314 318 318 316 316 318 318 318 321 317 316 317 317 317 318 317 317 317 317 318 317 317 318 326 337 341 343 343 345 344 344 344 342 340 340 340 340 337 339
315 314 314 314 314 316 317 315 316 316 317 320 318 318 317 316 317 318 318 317 317 317 317 318 317 317 317 317 322 334 340 341 342 342 342 342 341 340 340 340 341 340 341 341
314 314 313 313 314 313 315 317 322 322 321 321 318 318 318 317 317 317 318 318 317 317 317 317 318 317 316 316 322 333 339 341 343 341 341 341 341 340 340 341 342 342 341 341
317 316 313 313 312 315 316 316 321 324 321 319 315 318 315 315 315 316 316 316 316 317 316 316 317 318 317 316 319 328 336 340 342 341 344 342 341 340 341 342 342 341 340 340
317 314 312 312 313 314 318 321 317 322 320 320 316 315 315 315 316 316 317 316 317 317 317 317 315 315 315 315 316 323 334 337 340 342 342 345 343 342 343 343 342 340 340 340
316 319 312 313 313 315 316 316 323 322 323 321 316 316 316 315 315 315 316 318 318 318 318 317 317 318 320 319 315 316 326 335 338 340 341 344 345 342 344 343 341 340 339 337
316 318 314 313 315 316 317 321 319 320 322 322 319 315 315 315 316 316 315 317 317 317 316 316 316 316 317 320 323 315 319 329 336 339 339 338 345 345 343 342 340 339 337 332
314 318 317 314 313 315 316 318 318 322 321 321 320 319 315 315 316 316 315 314 314 315 313 314 315 314 315 317 321 326 317 325 332 337 338 340 342 344 343 340 338 335 332 329
314 317 318 315 314 315 317 314 314 317 318 318 321 319 314 315 315 316 315 313 313 312 312 312 312 313 315 315 317 319 324 321 330 335 337 340 342 343 341 337 333 330 327 323
316 317 317 318 316 316 317 317 315 315 318 318 318 318 315 315 314 314 314 313 313 313 311 312 312 312 313 313 314 314 324 322 328 334 337 341 341 339 335 332 329 326 323 320
317 320 316 316 314 313 315 316 315 315 316 318 316 316 315 315 315 314 314 313 312 311 311 311 311 311 311 312 313 313 322 327 328 334 337 340 338 335 331 328 325 322 321 320
313 316 315 315 313 313 314 315 315 315 315 317 318 317 314 313 311 310 310 309 309 309 309 310 310 310 310 311 311 312 315 329 331 334 338 339 333 330 327 325 323 321 320 319
312 316 315 316 313 314 316 315 315 315 313 314 315 313 310 311 310 309 308 308 308 308 308 309 309 308 309 309 309 312 313 331 334 336 338 334 330 327 325 323 322 320 319 317
315 315 317 317 314 314 312 310 310 311 311 311 312 312 310 309 307 307 305 305 306 306 306 307 307 307 307 308 308 310 319 331 334 336 335 331 327 325 322 321 320 319 318 316
312 314 315 316 315 314 314 311 312 311 310 308 307 306 306 305 304 303 303 304 304 305 306 307 306 306 306 307 308 310 325 335 335 335 330 328 325 323 322 321 320 319 316 313
314 313 313 313 316 316 316 310 309 305 309 306 306 304 304 302 303 305 304 303 303 304 305 305 304 304 306 306 307 311 328 334 332 332 328 325 324 322 320 318 317 315 313 309
312 312 313 314 315 315 312 311 310 314 314 305 303 302 301 302 302 301 301 301 302 303 305 305 306 307 307 307 309 324 327 332 331 327 324 322 320 318 317 315 313 311 309 306
314 315 315 315 314 314 311 312 310 307 302 302 300 300 301 301 301 301 305 308 306 305 305 305 308 308 306 316 324 326 329 326 323 321 320 318 317 315 314 312 309 307 304 300
315 314 315 315 317 314 313 309 307 304 299 299 298 298 299 299 302 310 311 310 308 307 308 308 307 308 320 322 324 322 320 321 320 318 315 315 314 313 312 311 308 305 303 299
313 311 314 314 315 314 309 306 304 302 299 297 296 297 301 306 310 312 311 311 310 310 310 307 308 316 315 316 317 317 317 315 315 313 313 313 312 312 311 309 307 305 302 300
314 312 314 314 314 307 308 304 302 300 299 300 302 305 311 320 321 321 319 316 313 311 311 314 316 313 311 310 310 311 311 311 308 307 307 307 307 308 308 306 305 303 302 300
313 315 315 315 307 302 303 302 301 299 300 301 303 306 312 318 318 318 318 317 319 319 317 315 313 312 309 307 306 307 306 306 305 305 304 302 301 301 301 300 299 301 300 299
Wind_Speed
3 6 14 19 12 14 16 20 25 26 22 25 24 26 25 21 21 19 18 16 16 15 17 17 17 15 10 12 17 24 28 31 33 33 32 29 28 28 29 21 23 26 25 22
9 13 11 6 14 16 16 20 26 24 18 17 22 29 27 21 25 23 23 22 19 17 15 16 16 15 13 12 17 20 27 30 38 30 30 23 29 23 24 27 25 25 25 25
10 13 11 12 19 19 14 16 18 19 19 17 20 31 23 21 19 19 21 21 20 20 17 15 14 16 16 12 17 22 26 28 35 34 24 17 22 12 18 22 22 24 26 27
7 4 10 17 19 11 13 6 10 17 16 13 9 17 18 20 20 17 17 17 17 18 15 15 15 15 19 21 16 20 23 26 25 25 24 27 22 22 21 25 28 29 33 31
6 11 19 19 11 9 12 11 16 17 18 17 19 11 10 10 15 18 15 13 12 14 15 16 16 19 23 26 20 19 22 25 26 33 30 27 25 25 23 25 25 26 29 27
14 13 10 9 13 12 9 14 21 14 8 8 18 16 12 8 8 9 3 4 2 6 10 13 16 18 21 24 25 20 23 26 27 31 32 31 29 26 23 25 24 26 26 25
18 3 6 6 12 14 8 13 6 3 3 6 3 9 14 20 20 14 13 12 5 2 6 9 12 12 16 21 24 21 22 24 30 29 33 35 29 30 26 26 26 25 25 24
9 15 7 3 20 16 21 8 5 6 5 12 12 9 5 9 12 13 13 8 1 4 5 8 11 11 14 18 17 24 22 23 27 32 33 35 45 34 29 28 25 26 27 33
10 12 23 20 13 3 2 6 2 6 12 8 6 9 16 8 7 3 8 6 5 7 8 10 5 6 10 12 16 19 21 22 24 30 31 34 37 30 27 29 32 30 31 29
6 18 8 7 17 8 12 1 4 4 5 6 6 11 11 17 13 2 5 8 8 7 8 8 8 9 10 10 14 15 19 23 22 25 29 29 38 37 30 29 31 33 35 35
10 4 12 17 8 16 6 3 5 4 5 6 11 8 6 14 12 8 10 5 6 7 9 9 9 11 12 12 12 13 15 21 22 25 24 26 23 30 36 33 33 36 37 36
3 4 12 21 22 12 15 15 10 6 7 8 9 13 17 18 15 7 5 5 7 8 10 12 11 11 13 13 14 13 12 18 21 21 23 30 34 26 31 35 35 38 36 33
7 3 9 10 3 2 9 11 14 14 13 23 15 14 3 9 12 12 11 13 12 11 11 12 14 12 11 14 15 15 12 16 19 22 21 21 30 30 31 35 40 39 38 36
14 6 13 12 22 21 21 26 24 17 9 18 20 30 24 25 27 26 26 22 20 19 14 14 14 15 14 16 16 17 16 15 21 24 27 29 31 30 32 38 43 43 42 42
4 9 16 19 22 24 28 29 29 21 23 18 27 29 27 26 24 20 20 23 24 24 21 20 15 14 16 18 18 14 16 15 24 27 30 32 30 37 33 39 43 44 45 45
6 7 15 21 22 23 28 24 18 18 19 19 26 27 25 19 16 19 24 27 27 26 25 21 17 16 16 19 19 16 16 16 27 30 31 29 36 38 35 40 44 45 43 44
6 4 8 19 19 25 14 6 4 9 14 15 18 27 23 25 24 23 22 24 24 23 24 21 20 19 17 21 20 20 16 17 28 31 33 33 40 40 39 40 45 47 43 42
6 6 4 12 17 9 7 4 5 12 17 21 23 26 23 20 21 25 22 22 25 25 23 23 19 18 25 23 22 21 19 21 29 31 33 38 38 40 42 39 42 43 43 42
12 4 7 5 10 22 13 3 2 10 30 16 7 10 22 26 23 32 25 23 27 28 24 23 28 30 29 25 21 20 21 23 31 30 36 42 44 42 43 38 38 39 42 40
6 10 6 10 9 8 4 3 8 7 14 5 11 27 27 22 15 20 14 11 14 14 16 17 23 24 24 21 18 19 18 26 32 34 37 43 46 45 43 45 42 39 41 42
8 6 9 10 10 10 1 11 9 6 13 21 27 26 27 22 18 25 28 25 18 19 9 10 14 17 18 17 20 19 17 26 31 32 36 40 46 46 44 44 46 47 43 44
5 5 4 5 10 8 12 18 3 12 20 22 26 27 28 28 29 24 23 20 15 17 17 18 12 11 14 19 21 17 17 34 35 39 35 38 44 45 46 49 47 48 48 44
5 4 6 5 8 23 19 10 14 17 19 23 24 28 27 28 27 21 7 4 9 12 11 12 10 7 10 13 29 29 26 35 34 37 33 37 42 45 47 50 47 45 48 41
6 3 5 9 10 17 16 11 16 19 21 22 22 24 24 23 22 8 2 5 7 8 9 10 7 12 10 20 24 33 39 40 38 32 33 30 39 43 42 46 44 44 40 42
10 8 8 13 18 14 10 18 20 23 24 23 27 24 18 6 7 6 9 8 7 6 4 9 13 14 18 24 28 31 38 44 38 38 37 37 35 39 38 38 40 39 33 41
4 5 5 11 8 4 14 19 22 23 24 24 23 22 19 10 10 12 11 10 9 10 15 13 21 24 23 25 27 32 37 45 45 38 37 37 40 39 41 48 42 37 42 38
Wind_Direction
359 276 275 303 325 300 295 290 285 284 285 287 282 279 278 279 273 266 267 262 260 258 265 274 277 274 252 218 204 201 201 195 188 185 185 188 187 199 202 214 210 206 201 196
300 283 316 292 316 303 293 291 284 284 288 280 284 276 278 276 271 268 264 261 251 252 241 258 254 265 260 207 213 205 208 200 185 194 187 193 190 194 202 210 209 209 204 200
284 282 313 311 314 304 303 289 294 296 307 281 279 276 276 273 263 263 257 249 249 241 234 237 240 243 258 220 207 207 211 210 197 198 193 171 182 173 191 203 204 205 206 205
287 287 293 307 303 292 294 302 298 302 306 298 335 287 290 286 276 262 252 243 238 231 229 232 235 242 244 246 218 205 211 211 208 196 192 190 182 194 196 197 199 204 206 206
293 300 306 307 293 309 289 302 307 299 283 291 262 263 278 287 277 272 268 258 238 239 234 234 235 238 243 245 236 213 203 207 205 205 202 196 190 198 189 195 195 198 201 204
274 291 290 277 308 294 293 306 304 289 277 257 277 244 287 293 280 302 325 26 286 239 237 240 239 229 235 237 236 219 206 199 203 195 193 190 189 186 188 185 184 189 185 193
322 296 279 283 306 310 278 322 302 256 218 264 330 308 259 279 279 279 293 323 337 295 277 253 242 230 228 239 229 228 208 199 192 201 192 192 191 202 199 178 180 176 174 181
330 323 346 248 308 293 288 266 272 297 289 301 294 263 266 278 295 291 296 296 96 27 348 289 260 255 233 235 231 225 218 203 194 193 195 186 194 197 189 180 181 176 178 184
321 295 310 295 295 277 313 219 295 271 257 268 241 267 286 309 281 333 36 51 75 51 17 8 356 305 287 270 258 227 226 218 206 195 198 190 182 186 187 181 179 175 178 176
305 303 314 321 304 292 241 123 258 209 274 259 259 273 275 289 284 19 42 68 56 36 9 0 360 355 347 311 280 259 236 228 212 204 193 211 176 179 182 176 169 171 176 177
309 231 291 309 283 302 272 230 232 275 239 277 281 271 267 276 276 302 344 85 350 338 335 338 338 340 333 332 315 280 246 234 218 204 202 194 199 175 175 174 172 176 175 168
325 277 287 289 287 300 258 263 259 255 263 248 280 271 268 269 276 300 328 339 340 316 317 317 320 322 320 324 325 320 255 235 226 212 200 178 189 180 177 165 167 169 161 157
326 255 296 294 239 162 259 281 289 271 266 265 273 259 299 275 296 268 284 295 297 297 295 306 304 307 306 309 313 319 295 232 219 211 207 190 169 187 179 162 156 152 150 143
294 221 251 273 282 295 290 285 288 272 261 279 266 280 279 272 273 277 279 291 291 287 286 289 286 294 292 289 292 302 298 236 210 200 197 187 170 184 166 153 145 145 144 134
276 260 269 271 282 288 280 281 287 277 268 264 276 279 283 283 284 284 284 286 284 281 281 280 275 275 284 283 283 288 297 244 206 197 193 180 167 155 152 144 139 139 138 140
270 276 295 288 289 288 291 287 282 275 278 273 271 274 277 291 296 278 278 283 275 273 271 262 260 265 272 276 279 281 290 252 201 193 183 169 149 145 145 141 140 137 138 141
265 263 300 294 314 310 288 255 223 268 264 266 277 286 302 289 288 285 283 269 266 266 271 260 259 265 264 268 276 274 277 249 196 187 173 159 146 146 145 143 138 137 140 138
254 271 275 294 312 294 326 143 263 266 274 278 274 282 289 297 293 281 269 264 263 261 256 254 257 259 259 263 270 268 265 236 188 185 163 152 147 142 138 145 141 141 140 139
223 276 301 281 303 284 286 72 292 304 302 291 270 290 296 292 289 278 269 268 259 258 252 248 251 255 258 255 256 263 254 213 181 169 162 149 146 143 143 145 145 138 134 133
172 240 264 297 286 298 17 307 288 279 282 175 304 303 302 306 293 283 295 271 288 277 254 245 240 241 244 245 242 257 234 194 176 159 158 149 145 145 146 141 138 135 132 128
307 309 268 288 289 271 168 312 330 279 318 315 304 300 301 294 279 280 285 278 255 248 226 239 250 236 231 225 238 224 218 180 150 142 144 144 140 140 139 134 131 128 127 125
291 315 295 295 294 300 323 331 315 300 296 298 298 302 299 297 298 295 280 262 237 225 230 240 241 221 233 226 207 202 161 135 131 133 136 135 136 136 135 129 128 127 126 123
275 248 290 277 277 292 318 318 306 303 295 297 299 301 297 297 298 308 323 115 164 189 207 209 196 212 141 136 139 122 129 126 129 131 131 135 137 135 134 132 131 128 127 127
287 279 252 296 263 311 323 325 315 311 304 303 296 291 292 287 290 351 66 122 154 176 183 170 180 116 102 108 124 128 134 136 132 128 129 137 134 131 134 130 132 130 136 134
279 303 272 274 290 321 330 328 319 318 316 321 322 324 313 326 37 57 85 99 119 134 181 169 117 107 103 110 116 122 125 124 123 123 124 124 120 121 122 120 125 126 132 134
208 254 293 293 351 314 315 318 323 322 325 329 326 333 353 82 72 70 63 63 74 80 98 102 104 102 103 104 110 118 125 126 125 125 122 126 119 117 113 106 99 114 123 128